#timestamp,LO_Frequency,Hit,StdDev 
1669640415.3,286046998.4,N
1669640435.1,286047000.5,N
1669640455.9,286046998.7,N
1669640475.7,286046999.6,N
1669640495.6,286046997.0,N
1669640515.4,286046999.3,N
1669640535.2,286046999.5,N
1669640555.1,286046998.1,N
1669640556.0,286046998.1,N
1669640575.8,286046998.5,N
1669640595.7,286046998.8,N
1669640615.5,286046998.1,N
1669640635.3,286046998.5,N
1669640655.2,286046998.1,N
1669640675.0,286046999.6,N
1669640675.9,286046999.6,N
1669640695.7,286046998.7,N
1669640715.6,286046998.7,N
1669640735.4,286046999.0,N
1669640755.3,286046996.7,Y
1669640775.1,286046997.2,P
1669640776.0,286046997.2,P
1669640795.8,286046999.6,N
1669640815.7,286046997.0,N
1669640835.5,286046999.3,N
1669640855.4,286047000.5,N
1669640875.2,286047002.7,N
1669640895.0,286047002.8,N
1669640895.9,286047002.8,N
1669640915.8,286047000.4,N
1669640935.6,286047002.6,N
1669640955.4,286047002.3,N
1669640975.3,286047002.5,N
1669640995.1,286047001.9,N
1669641015.9,286047002.3,N
1669641035.7,286047002.5,N
1669641055.5,286047001.6,N
1669641075.4,286047002.4,N
1669641095.2,286047000.7,N
1669641115.1,286047000.5,N
1669641116.0,286047000.5,N
1669641135.8,286047000.9,N
1669641155.6,286047000.9,N
1669641175.5,286047000.2,N
1669641195.3,286047000.0,N
1669641215.2,286046999.8,N
1669641235.9,286047002.4,N
1669641255.7,286047002.4,N
1669641275.6,286047001.6,N
1669641295.4,286047002.4,N
1669641315.2,286047002.3,N
1669641335.1,286047002.1,N
1669641336.0,286047002.1,N
1669641355.8,286047002.1,N
1669641375.7,286047002.1,N
1669641395.5,286047001.4,N
1669641415.3,286047001.4,N
1669641435.2,286047001.6,N
1669641455.0,286047001.9,N
1669641455.9,286047001.9,N
1669641475.8,286047001.8,N
1669641495.6,286047004.0,Y
1669641515.4,286047001.6,P
1669641535.3,286047002.1,P
1669641555.1,286047000.5,N
1669641575.8,286046999.9,N
1669641595.7,286046999.9,N
1669641615.5,286046998.5,N
1669641635.4,286046998.5,N
1669641655.2,286046999.8,N
1669641675.0,286047000.9,N
1669641675.9,286047000.9,N
1669641695.8,286046998.1,N
1669641715.6,286047000.0,N
1669641735.4,286047000.3,N
1669641755.3,286047002.8,N
1669641775.1,286047002.7,N
1669641795.9,286047002.0,N
1669641815.7,286047002.0,N
1669641835.5,286046999.8,N
1669641855.4,286047002.4,N
1669641875.2,286046999.8,N
1669641895.0,286047002.5,N
1669641895.9,286047002.5,N
1669641915.8,286047002.3,N
1669641935.6,286047001.5,N
1669641955.5,286047002.8,N
1669641975.3,286047000.1,N
1669641995.1,286047002.1,N
1669642015.9,286047001.6,N
1669642035.7,286047001.4,N
1669642055.5,286047002.3,N
1669642075.4,286047001.5,N
1669642095.2,286047000.3,N
1669642115.1,286047001.6,N
1669642116.0,286047001.6,N
1669642135.8,286047001.9,N
1669642155.6,286047001.5,N
1669642175.5,286047001.9,N
1669642195.3,286046999.9,N
1669642215.1,286047000.5,N
1669642235.9,286047002.8,N
1669642255.7,286047000.0,N
1669642275.6,286047002.4,N
1669642295.4,286047001.6,N
1669642315.2,286047001.6,N
1669642335.1,286047001.3,N
1669642336.0,286047001.3,N
1669642355.8,286047003.6,Y
1669642375.7,286047002.0,P
1669642395.5,286047000.1,N
1669642415.3,286047000.3,N
1669642435.2,286047000.1,N
1669642455.0,286047000.4,N
1669642455.9,286047000.4,N
1669642475.7,286047000.1,N
1669642495.1,286047001.6,N
1669642515.9,286047004.3,Y
1669642535.7,286047002.6,P
1669642555.6,286047002.2,N
1669642575.4,286047001.7,N
1669642595.2,286047001.4,N
1669642615.1,286047002.5,Y
1669642616.0,286047002.5,P
1669642635.9,286047000.0,N
1669642655.7,286047000.8,N
1669642675.5,286046998.3,N
1669642695.4,286046999.9,N
1669642715.2,286046998.2,N
1669642735.0,286047000.5,N
1669642735.9,286047000.5,N
1669642755.8,286047000.9,N
1669642775.6,286047000.8,N
1669642795.5,286046999.1,N
1669642815.3,286046999.0,N
1669642835.1,286047001.2,N
1669642855.9,286046998.2,N
1669642875.7,286046998.6,N
1669642895.6,286047001.2,N
1669642915.4,286047001.0,N
1669642935.2,286046999.2,N
1669642955.1,286046999.6,N
1669642956.0,286046999.6,N
1669642975.8,286046996.5,N
1669642995.6,286046997.7,N
1669643015.5,286046995.5,Y
1669643035.3,286046995.7,P
1669643055.2,286046993.3,P
1669643075.9,286046995.3,N
1669643095.7,286046997.3,N
1669643115.6,286046996.7,N
1669643135.4,286046996.8,N
1669643155.2,286046999.1,N
1669643175.1,286046999.6,N
1669643176.0,286046999.6,N
1669643195.8,286046999.3,N
1669643215.7,286047000.8,N
1669643235.5,286047001.1,N
1669643255.3,286047000.7,N
1669643275.2,286046998.3,N
1669643295.0,286046998.2,N
1669643295.9,286046998.2,N
1669643315.8,286046998.5,N
1669643335.6,286047001.2,N
1669643355.4,286047000.7,N
1669643375.3,286047000.4,N
1669643395.1,286047000.9,N
1669643415.8,286046999.9,N
1669643435.7,286047002.8,N
1669643455.5,286047000.6,N
1669643475.4,286047002.8,N
1669643495.2,286047002.8,N
1669643515.0,286046998.3,N
1669643515.9,286046998.3,N
1669643535.8,286047000.4,N
1669643555.6,286047002.7,N
1669643575.4,286046999.8,N
1669643595.3,286047002.6,N
1669643615.1,286047000.7,N
1669643635.9,286046998.9,N
1669643655.7,286046999.4,N
1669643675.5,286046999.3,N
1669643695.4,286046998.3,N
1669643715.2,286046994.9,Y
1669643735.1,286046999.1,P
1669643736.0,286046999.1,N
1669643755.8,286046999.6,N
1669643775.6,286046997.1,Y
1669643795.5,286047001.1,P
1669643815.3,286046998.7,N
1669643835.1,286047001.0,N
1669643855.9,286047001.0,N
1669643875.7,286047000.6,N
1669643895.6,286047000.2,N
1669643915.4,286047000.2,N
1669643935.2,286047002.4,Y
1669643955.1,286047000.0,P
1669643956.0,286047000.0,N
1669643975.8,286047000.0,N
1669643995.7,286047002.3,Y
